SBI122 UIII-UNKL

Flight info

Callsign SBI122
Flight time 1h 24m
Altitude 36000
Route BOGRA5C BOGRA A815 TUTEK A91 SUKOR W176 TISBU A311 LALOM LALOM2S
Aircraft A21N/M-SDE3FGHIRWY/LB1

Departure

Time 2026-05-09 14:12
Airport Irkutsk International Airport (UIII)

Arrival

Time 2026-05-09 15:36
Airport Krasnoyarsk International Airport (UNKL)
Time Latitude Longitude Altitude Speed Heading
2026-05-09 13:52 52.27162 104.36636 1598 ft 0 kts 199°
2026-05-09 14:06 52.27167 104.36639 1598 ft 1 kts 199°
2026-05-09 14:06 52.27172 104.36643 1598 ft 0 kts 199°
2026-05-09 14:07 52.27159 104.36635 1599 ft 4 kts 198°
2026-05-09 14:07 52.27124 104.36620 1601 ft 2 kts 157°
2026-05-09 14:07 52.27094 104.36678 1604 ft 9 kts 122°
2026-05-09 14:08 52.27063 104.36813 1606 ft 16 kts 109°
2026-05-09 14:08 52.27021 104.37008 1609 ft 18 kts 108°
2026-05-09 14:08 52.26998 104.37196 1608 ft 16 kts 62°
2026-05-09 14:08 52.27067 104.37367 1603 ft 19 kts 53°
2026-05-09 14:09 52.27098 104.37436 1600 ft 0 kts 54°
2026-05-09 14:10 52.27115 104.37475 1599 ft 6 kts 54°
2026-05-09 14:10 52.27152 104.37558 1596 ft 11 kts 53°
2026-05-09 14:10 52.27185 104.37686 1594 ft 12 kts 99°
2026-05-09 14:11 52.27173 104.37742 1596 ft 0 kts 112°
2026-05-09 14:11 52.27135 104.37891 1600 ft 43 kts 112°
2026-05-09 14:11 52.26936 104.38660 1618 ft 101 kts 113°
2026-05-09 14:12 52.26578 104.39975 1642 ft 150 kts 113°
2026-05-09 14:12 52.26122 104.41721 1829 ft 175 kts 111°
2026-05-09 14:12 52.25643 104.43522 2358 ft 174 kts 110°
2026-05-09 14:12 52.25175 104.45335 2898 ft 176 kts 107°
2026-05-09 14:13 52.25090 104.47245 3375 ft 171 kts 64°
2026-05-09 14:14 52.34097 104.43269 5364 ft 261 kts 334°
2026-05-09 14:15 52.35723 104.41997 5981 ft 265 kts 334°
2026-05-09 14:15 52.37399 104.40682 6689 ft 266 kts 333°
2026-05-09 14:15 52.39056 104.39380 7384 ft 267 kts 333°
2026-05-09 14:15 52.40725 104.38065 8099 ft 268 kts 333°
2026-05-09 14:16 52.42391 104.36752 8794 ft 268 kts 333°
2026-05-09 14:16 52.44074 104.35424 9474 ft 269 kts 332°
2026-05-09 14:16 52.45753 104.34100 10157 ft 270 kts 332°
2026-05-09 14:16 52.47461 104.32745 10626 ft 279 kts 332°
2026-05-09 14:17 52.49244 104.31328 10959 ft 291 kts 332°
2026-05-09 14:17 52.51065 104.29883 11513 ft 295 kts 333°
2026-05-09 14:17 52.52908 104.28419 12148 ft 296 kts 333°
2026-05-09 14:17 52.54762 104.26949 12743 ft 298 kts 333°
2026-05-09 14:18 52.56615 104.25478 13325 ft 300 kts 333°
2026-05-09 14:18 52.58517 104.23965 13887 ft 302 kts 333°
2026-05-09 14:18 52.60382 104.22482 14435 ft 304 kts 333°
2026-05-09 14:18 52.62301 104.20952 14982 ft 306 kts 333°
2026-05-09 14:19 52.64203 104.19434 15482 ft 309 kts 333°
2026-05-09 14:19 52.66154 104.17877 15994 ft 311 kts 333°
2026-05-09 14:19 52.68090 104.16331 16482 ft 314 kts 333°
2026-05-09 14:19 52.70055 104.14761 16965 ft 316 kts 333°
2026-05-09 14:20 52.72028 104.13182 17429 ft 319 kts 333°
2026-05-09 14:20 52.74034 104.11575 17883 ft 321 kts 333°
2026-05-09 14:20 52.76040 104.09966 18342 ft 323 kts 333°
2026-05-09 14:21 52.80100 104.06704 19285 ft 326 kts 333°
2026-05-09 14:21 52.82124 104.05074 19720 ft 328 kts 333°
2026-05-09 14:21 52.84180 104.03418 20170 ft 330 kts 333°
2026-05-09 14:21 52.86232 104.01765 20614 ft 331 kts 333°
2026-05-09 14:22 52.88316 104.00084 21039 ft 333 kts 333°
2026-05-09 14:22 52.90373 103.98421 21427 ft 335 kts 333°
2026-05-09 14:22 52.92486 103.96711 21832 ft 337 kts 333°
2026-05-09 14:22 52.94572 103.95021 22225 ft 339 kts 333°
2026-05-09 14:23 52.96695 103.93299 22601 ft 341 kts 333°
2026-05-09 14:23 52.98825 103.91572 22967 ft 343 kts 333°
2026-05-09 14:23 53.00960 103.89839 23341 ft 345 kts 333°
2026-05-09 14:23 53.03114 103.88089 23724 ft 346 kts 333°
2026-05-09 14:24 53.05266 103.86338 24112 ft 347 kts 333°
2026-05-09 14:24 53.07439 103.84567 24492 ft 347 kts 333°
2026-05-09 14:24 53.09609 103.82797 24834 ft 349 kts 333°
2026-05-09 14:24 53.11798 103.81007 25163 ft 351 kts 333°
2026-05-09 14:25 53.13987 103.79216 25477 ft 353 kts 333°
2026-05-09 14:25 53.16191 103.77434 25810 ft 355 kts 333°
2026-05-09 14:25 53.18424 103.75688 26132 ft 356 kts 334°
2026-05-09 14:25 53.20670 103.73940 26455 ft 357 kts 333°
2026-05-09 14:26 53.22730 103.71661 26672 ft 359 kts 314°
2026-05-09 14:26 53.24146 103.68250 26970 ft 362 kts 301°
2026-05-09 14:26 53.25384 103.64602 27307 ft 363 kts 302°
2026-05-09 14:26 53.26655 103.60938 27588 ft 364 kts 302°
2026-05-09 14:27 53.27934 103.57288 27876 ft 366 kts 302°
2026-05-09 14:27 53.29207 103.53677 28170 ft 366 kts 302°
2026-05-09 14:27 53.30506 103.49997 28450 ft 368 kts 302°
2026-05-09 14:27 53.31809 103.46316 28720 ft 369 kts 303°
2026-05-09 14:28 53.33122 103.42607 28980 ft 371 kts 303°
2026-05-09 14:28 53.34434 103.38905 29239 ft 372 kts 303°
2026-05-09 14:28 53.35734 103.35229 29501 ft 373 kts 303°
2026-05-09 14:28 53.37058 103.31480 29754 ft 375 kts 302°
2026-05-09 14:29 53.38394 103.27698 30002 ft 376 kts 302°
2026-05-09 14:29 53.39720 103.23938 30258 ft 378 kts 302°
2026-05-09 14:29 53.41044 103.20176 30510 ft 379 kts 302°
2026-05-09 14:29 53.42387 103.16357 30763 ft 380 kts 302°
2026-05-09 14:30 53.43715 103.12579 30990 ft 381 kts 302°
2026-05-09 14:30 53.45054 103.08759 31221 ft 383 kts 302°
2026-05-09 14:30 53.46395 103.04931 31438 ft 384 kts 302°
2026-05-09 14:30 53.47759 103.01026 31669 ft 385 kts 302°
2026-05-09 14:31 53.49108 102.97159 31909 ft 386 kts 302°
2026-05-09 14:31 53.50448 102.93311 32118 ft 387 kts 302°
2026-05-09 14:31 53.51812 102.89394 32325 ft 388 kts 302°
2026-05-09 14:31 53.53162 102.85507 32515 ft 390 kts 302°
2026-05-09 14:32 53.54528 102.81564 32706 ft 391 kts 302°
2026-05-09 14:32 53.55890 102.77632 32890 ft 392 kts 302°
2026-05-09 14:32 53.57262 102.73664 33074 ft 393 kts 302°
2026-05-09 14:32 53.58618 102.69737 33276 ft 394 kts 302°
2026-05-09 14:33 53.59989 102.65757 33457 ft 395 kts 302°
2026-05-09 14:33 53.61353 102.61797 33683 ft 394 kts 302°
2026-05-09 14:33 53.62720 102.57816 33947 ft 393 kts 302°
2026-05-09 14:33 53.64081 102.53847 34193 ft 392 kts 302°
2026-05-09 14:34 53.65455 102.49834 34402 ft 392 kts 302°
2026-05-09 14:34 53.66816 102.45851 34565 ft 393 kts 302°
2026-05-09 14:34 53.68185 102.41841 34733 ft 393 kts 302°
2026-05-09 14:34 53.69534 102.37882 34892 ft 394 kts 302°
2026-05-09 14:35 53.70893 102.33881 35032 ft 394 kts 301°
2026-05-09 14:35 53.72263 102.29844 35168 ft 394 kts 301°
2026-05-09 14:35 53.73611 102.25871 35280 ft 395 kts 301°
2026-05-09 14:35 53.74967 102.21869 35369 ft 397 kts 301°
2026-05-09 14:36 53.76334 102.17825 35486 ft 397 kts 301°
2026-05-09 14:36 53.77703 102.13769 35618 ft 397 kts 301°
2026-05-09 14:36 53.79073 102.09705 35738 ft 397 kts 301°
2026-05-09 14:36 53.80435 102.05651 35818 ft 399 kts 301°
2026-05-09 14:37 53.83156 101.97539 35962 ft 400 kts 301°
2026-05-09 14:37 53.85899 101.89336 35969 ft 400 kts 301°
2026-05-09 14:38 53.88612 101.81198 35970 ft 399 kts 301°
2026-05-09 14:38 53.91328 101.73015 35967 ft 399 kts 301°
2026-05-09 14:39 53.94023 101.64874 35967 ft 399 kts 301°
2026-05-09 14:39 53.96725 101.56685 35968 ft 398 kts 301°
2026-05-09 14:40 53.99414 101.48503 35967 ft 398 kts 301°
2026-05-09 14:40 54.02095 101.40324 35968 ft 399 kts 301°
2026-05-09 14:41 54.04786 101.32085 35965 ft 399 kts 300°
2026-05-09 14:41 54.07456 101.23878 35965 ft 399 kts 300°
2026-05-09 14:42 54.10138 101.15610 35963 ft 399 kts 300°
2026-05-09 14:42 54.12794 101.07399 35961 ft 398 kts 300°
2026-05-09 14:43 54.15443 100.99178 35957 ft 398 kts 300°
2026-05-09 14:43 54.18105 100.90887 35954 ft 399 kts 300°
2026-05-09 14:44 54.20756 100.82602 35946 ft 399 kts 300°
2026-05-09 14:44 54.23390 100.74341 35943 ft 399 kts 300°
2026-05-09 14:45 54.26020 100.66066 35943 ft 398 kts 300°
2026-05-09 14:45 54.28650 100.57763 35946 ft 398 kts 300°
2026-05-09 14:46 54.31282 100.49425 35957 ft 399 kts 300°
2026-05-09 14:46 54.33897 100.41113 35962 ft 399 kts 300°
2026-05-09 14:47 54.36505 100.32787 35963 ft 399 kts 299°
2026-05-09 14:47 54.39118 100.24424 35966 ft 399 kts 299°
2026-05-09 14:48 54.41717 100.16080 35966 ft 400 kts 298°
2026-05-09 14:48 54.44320 100.07689 35965 ft 399 kts 298°
2026-05-09 14:49 54.46902 99.99332 35965 ft 398 kts 298°
2026-05-09 14:49 54.49497 99.90906 35966 ft 399 kts 298°
2026-05-09 14:50 54.52081 99.82485 35964 ft 400 kts 298°
2026-05-09 14:50 54.54665 99.74040 35971 ft 400 kts 298°
2026-05-09 14:51 54.57231 99.65624 35962 ft 400 kts 298°
2026-05-09 14:51 54.59816 99.57109 35968 ft 401 kts 298°
2026-05-09 14:52 54.62371 99.48662 35971 ft 400 kts 298°
2026-05-09 14:52 54.64930 99.40182 35972 ft 401 kts 298°
2026-05-09 14:53 54.67500 99.31628 35973 ft 401 kts 297°
2026-05-09 14:53 54.70041 99.23141 35973 ft 401 kts 297°
2026-05-09 14:54 54.72589 99.14600 35969 ft 401 kts 297°
2026-05-09 14:54 54.75136 99.06029 35973 ft 401 kts 297°
2026-05-09 14:55 54.77657 98.97511 35967 ft 401 kts 298°
2026-05-09 14:55 54.80191 98.88928 35970 ft 401 kts 297°
2026-05-09 14:56 54.82702 98.80384 35962 ft 402 kts 297°
2026-05-09 14:56 54.85243 98.71709 35968 ft 403 kts 297°
2026-05-09 14:57 54.87763 98.63077 35971 ft 403 kts 297°
2026-05-09 14:57 54.90265 98.54470 35965 ft 403 kts 297°
2026-05-09 14:58 54.92776 98.45802 35971 ft 403 kts 298°
2026-05-09 14:58 54.95280 98.37128 35966 ft 402 kts 297°
2026-05-09 14:59 54.97782 98.28429 35965 ft 402 kts 297°
2026-05-09 14:59 55.00256 98.19794 35966 ft 401 kts 297°
2026-05-09 15:00 55.02747 98.11065 35956 ft 401 kts 297°
2026-05-09 15:00 55.05199 98.02447 35950 ft 401 kts 297°
2026-05-09 15:01 55.08893 97.89398 35948 ft 402 kts 296°
2026-05-09 15:02 55.11354 97.80663 35953 ft 402 kts 296°
2026-05-09 15:02 55.13812 97.71907 35955 ft 402 kts 296°
2026-05-09 15:03 55.16269 97.63126 35958 ft 403 kts 296°
2026-05-09 15:03 55.18705 97.54382 35964 ft 403 kts 296°
2026-05-09 15:04 55.21140 97.45610 35963 ft 402 kts 296°
2026-05-09 15:06 55.29735 97.09506 35945 ft 404 kts 290°
2026-05-09 15:06 55.31595 97.00234 35943 ft 404 kts 290°
2026-05-09 15:07 55.33439 96.90991 35938 ft 404 kts 290°
2026-05-09 15:07 55.35296 96.81651 35933 ft 404 kts 290°
2026-05-09 15:08 55.37138 96.72352 35923 ft 405 kts 290°
2026-05-09 15:08 55.39885 96.58397 35913 ft 405 kts 290°
2026-05-09 15:10 55.47184 96.20805 35899 ft 408 kts 289°
2026-05-09 15:11 55.48088 96.16101 35783 ft 409 kts 289°
2026-05-09 15:11 55.49010 96.11280 35558 ft 407 kts 289°
2026-05-09 15:11 55.49903 96.06602 35330 ft 405 kts 289°
2026-05-09 15:11 55.50799 96.01906 35101 ft 403 kts 289°
2026-05-09 15:12 55.51689 95.97221 34880 ft 401 kts 289°
2026-05-09 15:12 55.52580 95.92518 34636 ft 399 kts 289°
2026-05-09 15:12 55.53463 95.87863 34366 ft 400 kts 289°
2026-05-09 15:12 55.54340 95.83220 34088 ft 401 kts 289°
2026-05-09 15:13 55.55224 95.78532 33723 ft 403 kts 289°
2026-05-09 15:13 55.56103 95.73856 33216 ft 404 kts 289°
2026-05-09 15:13 55.56988 95.69138 32741 ft 400 kts 289°
2026-05-09 15:13 55.57860 95.64475 32322 ft 398 kts 289°
2026-05-09 15:14 55.58715 95.59883 31858 ft 395 kts 289°
2026-05-09 15:14 55.59566 95.55314 31411 ft 391 kts 289°
2026-05-09 15:14 55.60406 95.50788 30972 ft 388 kts 289°
2026-05-09 15:14 55.61243 95.46272 30491 ft 385 kts 289°
2026-05-09 15:15 55.62069 95.41812 30008 ft 382 kts 289°
2026-05-09 15:15 55.62889 95.37369 29551 ft 379 kts 288°
2026-05-09 15:15 55.63702 95.32951 29105 ft 375 kts 287°
2026-05-09 15:15 55.64499 95.28610 28675 ft 372 kts 287°
2026-05-09 15:16 55.65292 95.24284 28247 ft 369 kts 287°
2026-05-09 15:16 55.66076 95.19991 27811 ft 366 kts 287°
2026-05-09 15:16 55.66855 95.15722 27389 ft 363 kts 287°
2026-05-09 15:16 55.67620 95.11512 26964 ft 360 kts 287°
2026-05-09 15:17 55.68376 95.07344 26531 ft 358 kts 287°
2026-05-09 15:17 55.69132 95.03169 26081 ft 356 kts 287°
2026-05-09 15:17 55.69884 94.99003 25645 ft 354 kts 287°
2026-05-09 15:17 55.70628 94.94875 25222 ft 351 kts 286°
2026-05-09 15:18 55.71355 94.90829 24805 ft 348 kts 286°
2026-05-09 15:18 55.72082 94.86777 24396 ft 346 kts 286°
2026-05-09 15:18 55.72812 94.82703 23971 ft 344 kts 286°
2026-05-09 15:18 55.73529 94.78688 23548 ft 342 kts 286°
2026-05-09 15:19 55.74245 94.74667 23120 ft 341 kts 286°
2026-05-09 15:19 55.74945 94.70731 22698 ft 339 kts 286°
2026-05-09 15:19 55.75650 94.66750 22266 ft 338 kts 286°
2026-05-09 15:19 55.76358 94.62753 21827 ft 337 kts 286°
2026-05-09 15:20 55.77050 94.58839 21406 ft 336 kts 286°
2026-05-09 15:20 55.78435 94.50972 20560 ft 333 kts 286°
2026-05-09 15:20 55.79124 94.47053 20139 ft 332 kts 286°
2026-05-09 15:21 55.79813 94.43119 19704 ft 331 kts 286°
2026-05-09 15:21 55.80489 94.39245 19282 ft 330 kts 286°
2026-05-09 15:21 55.81171 94.35335 18855 ft 329 kts 286°
2026-05-09 15:21 55.81839 94.31493 18437 ft 328 kts 285°
2026-05-09 15:22 55.82541 94.27580 17996 ft 327 kts 286°
2026-05-09 15:22 55.83241 94.23766 17574 ft 326 kts 286°
2026-05-09 15:22 55.83940 94.19955 17142 ft 326 kts 286°
2026-05-09 15:22 55.84643 94.16104 16718 ft 324 kts 286°
2026-05-09 15:23 55.85335 94.12306 16312 ft 323 kts 286°
2026-05-09 15:23 55.86022 94.08522 15899 ft 321 kts 287°
2026-05-09 15:23 55.86708 94.04739 15496 ft 319 kts 287°
2026-05-09 15:23 55.87386 94.00990 15081 ft 318 kts 286°
2026-05-09 15:24 55.88060 93.97258 14653 ft 317 kts 287°
2026-05-09 15:24 55.88736 93.93496 14222 ft 317 kts 286°
2026-05-09 15:24 55.89404 93.89776 13797 ft 316 kts 286°
2026-05-09 15:24 55.90066 93.86076 13385 ft 314 kts 286°
2026-05-09 15:25 55.90743 93.82348 12976 ft 313 kts 288°
2026-05-09 15:25 55.91467 93.78748 12574 ft 312 kts 289°
2026-05-09 15:25 55.92218 93.75080 12163 ft 310 kts 289°
2026-05-09 15:26 55.93686 93.67903 11365 ft 307 kts 289°
2026-05-09 15:26 55.94413 93.64335 10960 ft 306 kts 289°
2026-05-09 15:26 55.95131 93.60809 10560 ft 304 kts 289°
2026-05-09 15:26 55.95846 93.57285 10160 ft 303 kts 289°
2026-05-09 15:27 55.96546 93.53833 9958 ft 293 kts 289°
2026-05-09 15:27 55.97229 93.50462 9819 ft 282 kts 289°
2026-05-09 15:27 55.97896 93.47163 9438 ft 281 kts 289°
2026-05-09 15:27 55.98547 93.43937 9064 ft 280 kts 289°
2026-05-09 15:28 55.99203 93.40676 8698 ft 278 kts 289°
2026-05-09 15:28 55.99858 93.37412 8304 ft 277 kts 289°
2026-05-09 15:28 56.00505 93.34186 7924 ft 276 kts 288°
2026-05-09 15:28 56.01152 93.30953 7566 ft 274 kts 288°
2026-05-09 15:29 56.01792 93.27744 7209 ft 272 kts 287°
2026-05-09 15:29 56.02334 93.24549 6865 ft 269 kts 282°
2026-05-09 15:29 56.02776 93.21287 6523 ft 267 kts 282°
2026-05-09 15:29 56.03197 93.18095 6172 ft 266 kts 282°
2026-05-09 15:30 56.03624 93.14857 5818 ft 265 kts 282°
2026-05-09 15:30 56.04049 93.11625 5460 ft 265 kts 282°
2026-05-09 15:30 56.04467 93.08439 5095 ft 265 kts 282°
2026-05-09 15:30 56.04889 93.05222 4733 ft 265 kts 281°
2026-05-09 15:31 56.05311 93.01997 4377 ft 265 kts 281°
2026-05-09 15:31 56.05725 92.98836 4239 ft 255 kts 281°
2026-05-09 15:31 56.06160 92.95880 4199 ft 243 kts 286°
2026-05-09 15:31 56.06753 92.93053 4157 ft 243 kts 291°
2026-05-09 15:32 56.07427 92.90266 4090 ft 244 kts 292°
2026-05-09 15:32 56.08107 92.87497 3992 ft 243 kts 292°
2026-05-09 15:32 56.08779 92.84753 3900 ft 244 kts 293°
2026-05-09 15:32 56.09499 92.82015 3711 ft 243 kts 294°
2026-05-09 15:33 56.10216 92.79237 3384 ft 246 kts 292°
2026-05-09 15:33 56.10896 92.76451 3071 ft 245 kts 291°
2026-05-09 15:33 56.11543 92.73704 2983 ft 233 kts 291°
2026-05-09 15:33 56.12152 92.71091 2997 ft 228 kts 291°
2026-05-09 15:34 56.12763 92.68478 2891 ft 225 kts 291°
2026-05-09 15:34 56.13360 92.65939 2662 ft 219 kts 292°
2026-05-09 15:34 56.13948 92.63445 2335 ft 217 kts 292°
2026-05-09 15:34 56.14526 92.60997 2017 ft 205 kts 292°
2026-05-09 15:35 56.15053 92.58772 1778 ft 189 kts 292°
2026-05-09 15:35 56.15552 92.56667 1502 ft 175 kts 292°
2026-05-09 15:35 56.15996 92.54748 1286 ft 159 kts 291°
2026-05-09 15:35 56.16420 92.53022 1084 ft 144 kts 293°
2026-05-09 15:36 56.16793 92.51404 931 ft 135 kts 290°
2026-05-09 15:36 56.17105 92.50088 921 ft 91 kts 291°
2026-05-09 15:36 56.17253 92.49297 912 ft 41 kts 287°